Year,Month,Day,Hour,Minute,Value (Times are PST for temperature in C)
2017,05,06,00,00,5.70
2017,05,06,00,01,5.70
2017,05,06,00,02,5.70
2017,05,06,00,03,5.70
2017,05,06,00,04,5.60
2017,05,06,00,05,5.60
2017,05,06,00,06,5.60
2017,05,06,00,07,5.50
2017,05,06,00,08,5.50
2017,05,06,00,09,5.50
2017,05,06,00,10,5.40
2017,05,06,00,11,5.40
2017,05,06,00,12,5.40
2017,05,06,00,13,5.30
2017,05,06,00,14,5.30
2017,05,06,00,15,5.30
2017,05,06,00,16,5.30
2017,05,06,00,17,5.30
2017,05,06,00,18,5.30
2017,05,06,00,19,5.30
2017,05,06,00,20,5.30
2017,05,06,00,21,5.20
2017,05,06,00,22,5.20
2017,05,06,00,23,5.20
2017,05,06,00,24,5.20
2017,05,06,00,25,5.20
2017,05,06,00,26,5.20
2017,05,06,00,27,5.10
2017,05,06,00,28,5.10
2017,05,06,00,29,5.10
2017,05,06,00,30,5.10
2017,05,06,00,31,5.10
2017,05,06,00,32,5.10
2017,05,06,00,33,5.10
2017,05,06,00,34,5.10
2017,05,06,00,35,5.10
2017,05,06,00,36,5.00
2017,05,06,00,37,5.00
2017,05,06,00,38,5.00
2017,05,06,00,39,5.00
2017,05,06,00,40,5.00
2017,05,06,00,41,5.00
2017,05,06,00,42,4.90
2017,05,06,00,43,4.90
2017,05,06,00,44,4.90
2017,05,06,00,45,4.90
2017,05,06,00,46,4.90
2017,05,06,00,47,4.90
2017,05,06,00,48,4.90
2017,05,06,00,49,4.90
2017,05,06,00,50,4.90
2017,05,06,00,51,4.90
2017,05,06,00,52,4.80
2017,05,06,00,53,4.80
2017,05,06,00,54,4.80
2017,05,06,00,55,4.80
2017,05,06,00,56,4.80
2017,05,06,00,57,4.80
2017,05,06,00,58,4.70
2017,05,06,00,59,4.70
2017,05,06,01,00,4.70
2017,05,06,01,01,4.70
2017,05,06,01,02,4.60
2017,05,06,01,03,4.60
2017,05,06,01,04,4.60
2017,05,06,01,05,4.60
2017,05,06,01,06,4.50
2017,05,06,01,07,4.50
2017,05,06,01,08,4.50
2017,05,06,01,09,4.40
2017,05,06,01,10,4.40
2017,05,06,01,11,4.40
2017,05,06,01,12,4.40
2017,05,06,01,13,4.40
2017,05,06,01,14,4.40
2017,05,06,01,15,4.40
2017,05,06,01,16,4.40
2017,05,06,01,17,4.40
2017,05,06,01,18,4.40
2017,05,06,01,19,4.40
2017,05,06,01,20,4.40
2017,05,06,01,21,4.40
2017,05,06,01,22,4.30
2017,05,06,01,23,4.30
2017,05,06,01,24,4.30
2017,05,06,01,25,4.30
2017,05,06,01,26,4.30
2017,05,06,01,27,4.30
2017,05,06,01,28,4.30
2017,05,06,01,29,4.30
2017,05,06,01,30,4.30
2017,05,06,01,31,4.30
2017,05,06,01,32,4.30
2017,05,06,01,33,4.30
2017,05,06,01,34,4.30
2017,05,06,01,35,4.20
2017,05,06,01,36,4.20
2017,05,06,01,37,4.20
2017,05,06,01,38,4.20
2017,05,06,01,39,4.20
2017,05,06,01,40,4.20
2017,05,06,01,41,4.20
2017,05,06,01,42,4.10
2017,05,06,01,43,4.10
2017,05,06,01,44,4.10
2017,05,06,01,45,4.10
2017,05,06,01,46,4.10
2017,05,06,01,47,4.10
2017,05,06,01,48,4.10
2017,05,06,01,49,4.10
2017,05,06,01,50,4.20
2017,05,06,01,51,4.20
2017,05,06,01,52,4.20
2017,05,06,01,53,4.20
2017,05,06,01,54,4.20
2017,05,06,01,55,4.20
2017,05,06,01,56,4.10
2017,05,06,01,57,4.10
2017,05,06,01,58,4.10
2017,05,06,01,59,4.10
2017,05,06,02,00,4.10
2017,05,06,02,01,4.10
2017,05,06,02,02,4.10
2017,05,06,02,03,4.10
2017,05,06,02,04,4.10
2017,05,06,02,05,4.10
2017,05,06,02,06,4.10
2017,05,06,02,07,4.10
2017,05,06,02,08,4.20
2017,05,06,02,09,4.10
2017,05,06,02,10,4.10
2017,05,06,02,11,4.10
2017,05,06,02,12,4.10
2017,05,06,02,13,4.10
2017,05,06,02,14,4.10
2017,05,06,02,15,4.10
2017,05,06,02,16,4.10
2017,05,06,02,17,4.10
2017,05,06,02,18,4.10
2017,05,06,02,19,4.00
2017,05,06,02,20,4.00
2017,05,06,02,21,4.00
2017,05,06,02,22,4.00
2017,05,06,02,23,4.00
2017,05,06,02,24,3.90
2017,05,06,02,25,3.90
2017,05,06,02,26,3.90
2017,05,06,02,27,3.90
2017,05,06,02,28,3.90
2017,05,06,02,29,3.80
2017,05,06,02,30,3.80
2017,05,06,02,31,3.80
2017,05,06,02,32,3.80
2017,05,06,02,33,3.80
2017,05,06,02,34,3.70
2017,05,06,02,35,3.70
2017,05,06,02,36,3.70
2017,05,06,02,37,3.70
2017,05,06,02,38,3.70
2017,05,06,02,39,3.70
2017,05,06,02,40,3.70
2017,05,06,02,41,3.60
2017,05,06,02,42,3.60
2017,05,06,02,43,3.60
2017,05,06,02,44,3.60
2017,05,06,02,45,3.60
2017,05,06,02,46,3.60
2017,05,06,02,47,3.60
2017,05,06,02,48,3.60
2017,05,06,02,49,3.60
2017,05,06,02,50,3.60
2017,05,06,02,51,3.60
2017,05,06,02,52,3.60
2017,05,06,02,53,3.60
2017,05,06,02,54,3.60
2017,05,06,02,55,3.60
2017,05,06,02,56,3.50
2017,05,06,02,57,3.50
2017,05,06,02,58,3.50
2017,05,06,02,59,3.50
2017,05,06,03,00,3.40
2017,05,06,03,01,3.40
2017,05,06,03,02,3.40
2017,05,06,03,03,3.40
2017,05,06,03,04,3.30
2017,05,06,03,05,3.30
2017,05,06,03,06,3.30
2017,05,06,03,07,3.30
2017,05,06,03,08,3.30
2017,05,06,03,09,3.20
2017,05,06,03,10,3.20
2017,05,06,03,11,3.20
2017,05,06,03,12,3.20
2017,05,06,03,13,3.20
2017,05,06,03,14,3.20
2017,05,06,03,15,3.20
2017,05,06,03,16,3.20
2017,05,06,03,17,3.20
2017,05,06,03,18,3.20
2017,05,06,03,19,3.20
2017,05,06,03,20,3.20
2017,05,06,03,21,3.20
2017,05,06,03,22,3.20
2017,05,06,03,23,3.10
2017,05,06,03,24,3.10
2017,05,06,03,25,3.10
2017,05,06,03,26,3.10
2017,05,06,03,27,3.10
2017,05,06,03,28,3.10
2017,05,06,03,29,3.10
2017,05,06,03,30,3.10
2017,05,06,03,31,3.10
2017,05,06,03,32,3.20
2017,05,06,03,33,3.20
2017,05,06,03,34,3.20
2017,05,06,03,35,3.10
2017,05,06,03,36,3.10
2017,05,06,03,37,3.10
2017,05,06,03,38,3.10
2017,05,06,03,39,3.10
2017,05,06,03,40,3.10
2017,05,06,03,41,3.10
2017,05,06,03,42,3.10
2017,05,06,03,43,3.10
2017,05,06,03,44,3.10
2017,05,06,03,45,3.10
2017,05,06,03,46,3.00
2017,05,06,03,47,3.00
2017,05,06,03,48,3.00
2017,05,06,03,49,2.90
2017,05,06,03,50,2.90
2017,05,06,03,51,2.90
2017,05,06,03,52,2.90
2017,05,06,03,53,2.90
2017,05,06,03,54,2.90
2017,05,06,03,55,2.90
2017,05,06,03,56,2.90
2017,05,06,03,57,2.90
2017,05,06,03,58,2.90
2017,05,06,03,59,2.90
2017,05,06,04,00,2.90
2017,05,06,04,01,2.90
2017,05,06,04,02,2.80
2017,05,06,04,03,2.80
2017,05,06,04,04,2.80
2017,05,06,04,05,2.80
2017,05,06,04,06,2.80
2017,05,06,04,07,2.80
2017,05,06,04,08,2.80
2017,05,06,04,09,2.80
2017,05,06,04,10,2.80
2017,05,06,04,11,2.80
2017,05,06,04,12,2.80
2017,05,06,04,13,2.80
2017,05,06,04,14,2.80
2017,05,06,04,15,2.80
2017,05,06,04,16,2.70
2017,05,06,04,17,2.70
2017,05,06,04,18,2.70
2017,05,06,04,19,2.70
2017,05,06,04,20,2.70
2017,05,06,04,21,2.70
2017,05,06,04,22,2.70
2017,05,06,04,23,2.70
2017,05,06,04,24,2.70
2017,05,06,04,25,2.70
2017,05,06,04,26,2.70
2017,05,06,04,27,2.70
2017,05,06,04,28,2.70
2017,05,06,04,29,2.70
2017,05,06,04,30,2.70
2017,05,06,04,31,2.70
2017,05,06,04,32,2.70
2017,05,06,04,33,2.70
2017,05,06,04,34,2.60
2017,05,06,04,35,2.60
2017,05,06,04,36,2.60
2017,05,06,04,37,2.50
2017,05,06,04,38,2.50
2017,05,06,04,39,2.50
2017,05,06,04,40,2.40
2017,05,06,04,41,2.40
2017,05,06,04,42,2.40
2017,05,06,04,43,2.40
2017,05,06,04,44,2.40
2017,05,06,04,45,2.40
2017,05,06,04,46,2.30
2017,05,06,04,47,2.30
2017,05,06,04,48,2.30
2017,05,06,04,49,2.30
2017,05,06,04,50,2.30
2017,05,06,04,51,2.30
2017,05,06,04,52,2.30
2017,05,06,04,53,2.30
2017,05,06,04,54,2.30
2017,05,06,04,55,2.30
2017,05,06,04,56,2.30
2017,05,06,04,57,2.30
2017,05,06,04,58,2.30
2017,05,06,04,59,2.30
2017,05,06,05,00,2.30
2017,05,06,05,01,2.30
2017,05,06,05,02,2.20
2017,05,06,05,03,2.20
2017,05,06,05,04,2.20
2017,05,06,05,05,2.30
2017,05,06,05,06,2.20
2017,05,06,05,07,2.20
2017,05,06,05,08,2.20
2017,05,06,05,09,2.20
2017,05,06,05,10,2.20
2017,05,06,05,11,2.20
2017,05,06,05,12,2.20
2017,05,06,05,13,2.20
2017,05,06,05,14,2.10
2017,05,06,05,15,2.10
2017,05,06,05,16,2.10
2017,05,06,05,17,2.10
2017,05,06,05,18,2.10
2017,05,06,05,19,2.00
2017,05,06,05,20,2.00
2017,05,06,05,21,2.00
2017,05,06,05,22,2.00
2017,05,06,05,23,1.90
2017,05,06,05,24,1.90
2017,05,06,05,25,1.90
2017,05,06,05,26,1.90
2017,05,06,05,27,1.90
2017,05,06,05,28,1.90
2017,05,06,05,29,1.90
2017,05,06,05,30,1.90
2017,05,06,05,31,1.90
2017,05,06,05,32,1.90
2017,05,06,05,33,1.90
2017,05,06,05,34,1.90
2017,05,06,05,35,1.90
2017,05,06,05,36,1.90
2017,05,06,05,37,1.80
2017,05,06,05,38,1.80
2017,05,06,05,39,1.80
2017,05,06,05,40,1.80
2017,05,06,05,41,1.80
2017,05,06,05,42,1.80
2017,05,06,05,43,1.80
2017,05,06,05,44,1.80
2017,05,06,05,45,1.80
2017,05,06,05,46,1.80
2017,05,06,05,47,1.80
2017,05,06,05,48,1.80
2017,05,06,05,49,1.80
2017,05,06,05,50,1.80
2017,05,06,05,51,1.80
2017,05,06,05,52,1.80
2017,05,06,05,53,1.80
2017,05,06,05,54,1.80
2017,05,06,05,55,1.80
2017,05,06,05,56,1.90
2017,05,06,05,57,1.90
2017,05,06,05,58,1.80
2017,05,06,05,59,1.80
2017,05,06,06,00,1.80
2017,05,06,06,01,1.80
2017,05,06,06,02,1.70
2017,05,06,06,03,1.70
2017,05,06,06,04,1.70
2017,05,06,06,05,1.70
2017,05,06,06,06,1.70
2017,05,06,06,07,1.70
2017,05,06,06,08,1.70
2017,05,06,06,09,1.70
2017,05,06,06,10,1.70
2017,05,06,06,11,1.70
2017,05,06,06,12,1.70
2017,05,06,06,13,1.70
2017,05,06,06,14,1.70
2017,05,06,06,15,1.70
2017,05,06,06,16,1.70
2017,05,06,06,17,1.70
2017,05,06,06,18,1.70
2017,05,06,06,19,1.70
2017,05,06,06,20,1.70
2017,05,06,06,21,1.60
2017,05,06,06,22,1.60
2017,05,06,06,23,1.60
2017,05,06,06,24,1.60
2017,05,06,06,25,1.60
2017,05,06,06,26,1.60
2017,05,06,06,27,1.60
2017,05,06,06,28,1.60
2017,05,06,06,29,1.60
2017,05,06,06,30,1.60
2017,05,06,06,31,1.60
2017,05,06,06,32,1.60
2017,05,06,06,33,1.70
2017,05,06,06,34,1.70
2017,05,06,06,35,1.70
2017,05,06,06,36,1.70
2017,05,06,06,37,1.80
2017,05,06,06,38,1.80
2017,05,06,06,39,1.80
2017,05,06,06,40,1.80
2017,05,06,06,41,1.80
2017,05,06,06,42,1.80
2017,05,06,06,43,1.80
2017,05,06,06,44,1.80
2017,05,06,06,45,1.80
2017,05,06,06,46,1.80
2017,05,06,06,47,1.80
2017,05,06,06,48,1.80
2017,05,06,06,49,1.80
2017,05,06,06,50,1.80
2017,05,06,06,51,1.90
2017,05,06,06,52,1.90
2017,05,06,06,53,1.90
2017,05,06,06,54,2.00
2017,05,06,06,55,2.00
2017,05,06,06,56,2.10
2017,05,06,06,57,2.20
2017,05,06,06,58,2.20
2017,05,06,06,59,2.30
2017,05,06,07,00,2.40
2017,05,06,07,01,2.40
2017,05,06,07,02,2.50
2017,05,06,07,03,2.60
2017,05,06,07,04,2.70
2017,05,06,07,05,2.70
2017,05,06,07,06,2.80
2017,05,06,07,07,2.80
2017,05,06,07,08,2.90
2017,05,06,07,09,3.00
2017,05,06,07,10,3.00
2017,05,06,07,11,3.10
2017,05,06,07,12,3.20
2017,05,06,07,13,3.20
2017,05,06,07,14,3.30
2017,05,06,07,15,3.40
2017,05,06,07,16,3.50
2017,05,06,07,17,3.60
2017,05,06,07,18,3.70
2017,05,06,07,19,3.80
2017,05,06,07,20,3.80
2017,05,06,07,21,3.90
2017,05,06,07,22,4.00
2017,05,06,07,23,4.00
2017,05,06,07,24,4.10
2017,05,06,07,25,4.10
2017,05,06,07,26,4.20
2017,05,06,07,27,4.20
2017,05,06,07,28,4.30
2017,05,06,07,29,4.30
2017,05,06,07,30,4.30
2017,05,06,07,31,4.30
2017,05,06,07,32,4.30
2017,05,06,07,33,4.40
2017,05,06,07,34,4.40
2017,05,06,07,35,4.40
2017,05,06,07,36,4.50
2017,05,06,07,37,4.50
2017,05,06,07,38,4.60
2017,05,06,07,39,4.60
2017,05,06,07,40,4.70
2017,05,06,07,41,4.70
2017,05,06,07,42,4.80
2017,05,06,07,43,4.90
2017,05,06,07,44,4.90
2017,05,06,07,45,5.00
2017,05,06,07,46,5.00
2017,05,06,07,47,5.10
2017,05,06,07,48,5.20
2017,05,06,07,49,5.20
2017,05,06,07,50,5.20
2017,05,06,07,51,5.30
2017,05,06,07,52,5.30
2017,05,06,07,53,5.30
2017,05,06,07,54,5.30
2017,05,06,07,55,5.40
2017,05,06,07,56,5.40
2017,05,06,07,57,5.50
2017,05,06,07,58,5.60
2017,05,06,07,59,5.60
2017,05,06,08,00,5.70
2017,05,06,08,01,5.70
2017,05,06,08,02,5.80
2017,05,06,08,03,5.80
2017,05,06,08,04,5.90
2017,05,06,08,05,6.00
2017,05,06,08,06,6.00
2017,05,06,08,07,6.10
2017,05,06,08,08,6.10
2017,05,06,08,09,6.10
2017,05,06,08,10,6.20
2017,05,06,08,11,6.20
2017,05,06,08,12,6.30
2017,05,06,08,13,6.30
2017,05,06,08,14,6.40
2017,05,06,08,15,6.50
2017,05,06,08,16,6.50
2017,05,06,08,17,6.60
2017,05,06,08,18,6.60
2017,05,06,08,19,6.70
2017,05,06,08,20,6.70
2017,05,06,08,21,6.70
2017,05,06,08,22,6.70
2017,05,06,08,23,6.70
2017,05,06,08,24,6.70
2017,05,06,08,25,6.80
2017,05,06,08,26,6.80
2017,05,06,08,27,6.80
2017,05,06,08,28,6.90
2017,05,06,08,29,6.90
2017,05,06,08,30,6.90
2017,05,06,08,31,6.90
2017,05,06,08,32,7.00
2017,05,06,08,33,7.00
2017,05,06,08,34,7.10
2017,05,06,08,35,7.10
2017,05,06,08,36,7.10
2017,05,06,08,37,7.10
2017,05,06,08,38,7.20
2017,05,06,08,39,7.20
2017,05,06,08,40,7.30
2017,05,06,08,41,7.30
2017,05,06,08,42,7.40
2017,05,06,08,43,7.50
2017,05,06,08,44,7.50
2017,05,06,08,45,7.50
2017,05,06,08,46,7.60
2017,05,06,08,47,7.60
2017,05,06,08,48,7.60
2017,05,06,08,49,7.60
2017,05,06,08,50,7.60
2017,05,06,08,51,7.70
2017,05,06,08,52,7.70
2017,05,06,08,53,7.80
2017,05,06,08,54,7.80
2017,05,06,08,55,7.80
2017,05,06,08,56,7.90
2017,05,06,08,57,7.90
2017,05,06,08,58,8.00
2017,05,06,08,59,8.00
2017,05,06,09,00,8.10
2017,05,06,09,01,8.10
2017,05,06,09,02,8.20
2017,05,06,09,03,8.20
2017,05,06,09,04,8.20
2017,05,06,09,05,8.30
2017,05,06,09,06,8.30
2017,05,06,09,07,8.40
2017,05,06,09,08,8.40
2017,05,06,09,09,8.50
2017,05,06,09,10,8.60
2017,05,06,09,11,8.60
2017,05,06,09,12,8.80
2017,05,06,09,13,8.80
2017,05,06,09,14,8.90
2017,05,06,09,15,8.90
2017,05,06,09,16,9.00
2017,05,06,09,17,9.00
2017,05,06,09,18,9.00
2017,05,06,09,19,9.10
2017,05,06,09,20,9.10
2017,05,06,09,21,9.10
2017,05,06,09,22,9.20
2017,05,06,09,23,9.20
2017,05,06,09,24,9.20
2017,05,06,09,25,9.30
2017,05,06,09,26,9.30
2017,05,06,09,27,9.30
2017,05,06,09,28,9.40
2017,05,06,09,29,9.50
2017,05,06,09,30,9.60
2017,05,06,09,31,9.60
2017,05,06,09,32,9.70
2017,05,06,09,33,9.70
2017,05,06,09,34,9.70
2017,05,06,09,35,9.70
2017,05,06,09,36,9.70
2017,05,06,09,37,9.60
2017,05,06,09,38,9.60
2017,05,06,09,39,9.70
2017,05,06,09,40,9.70
2017,05,06,09,41,9.70
2017,05,06,09,42,9.80
2017,05,06,09,43,9.80
2017,05,06,09,44,9.80
2017,05,06,09,45,9.90
2017,05,06,09,46,9.90
2017,05,06,09,47,10.00
2017,05,06,09,48,10.00
2017,05,06,09,49,10.10
2017,05,06,09,50,10.10
2017,05,06,09,51,10.10
2017,05,06,09,52,10.00
2017,05,06,09,53,10.00
2017,05,06,09,54,9.90
2017,05,06,09,55,9.90
2017,05,06,09,56,9.80
2017,05,06,09,57,9.80
2017,05,06,09,58,9.90
2017,05,06,09,59,9.90
2017,05,06,10,00,9.90
2017,05,06,10,01,9.90
2017,05,06,10,02,9.90
2017,05,06,10,03,9.90
2017,05,06,10,04,10.00
2017,05,06,10,05,10.00
2017,05,06,10,06,10.10
2017,05,06,10,07,10.10
2017,05,06,10,08,10.00
2017,05,06,10,09,10.00
2017,05,06,10,10,10.00
2017,05,06,10,11,10.10
2017,05,06,10,12,10.00
2017,05,06,10,13,10.00
2017,05,06,10,14,9.90
2017,05,06,10,15,9.90
2017,05,06,10,16,10.00
2017,05,06,10,17,10.10
2017,05,06,10,18,10.10
2017,05,06,10,19,10.20
2017,05,06,10,20,10.30
2017,05,06,10,21,10.40
2017,05,06,10,22,10.50
2017,05,06,10,23,10.60
2017,05,06,10,24,10.70
2017,05,06,10,25,10.70
2017,05,06,10,26,10.70
2017,05,06,10,27,10.70
2017,05,06,10,28,10.70
2017,05,06,10,29,10.70
2017,05,06,10,30,10.80
2017,05,06,10,31,10.80
2017,05,06,10,32,10.90
2017,05,06,10,33,10.90
2017,05,06,10,34,10.90
2017,05,06,10,35,10.90
2017,05,06,10,36,10.90
2017,05,06,10,37,10.90
2017,05,06,10,38,10.90
2017,05,06,10,39,11.00
2017,05,06,10,40,11.00
2017,05,06,10,41,11.10
2017,05,06,10,42,11.10
2017,05,06,10,43,11.10
2017,05,06,10,44,11.20
2017,05,06,10,45,11.10
2017,05,06,10,46,11.10
2017,05,06,10,47,11.10
2017,05,06,10,48,11.10
2017,05,06,10,49,11.10
2017,05,06,10,50,11.00
2017,05,06,10,51,11.00
2017,05,06,10,52,10.90
2017,05,06,10,53,11.00
2017,05,06,10,54,11.00
2017,05,06,10,55,10.90
2017,05,06,10,56,10.90
2017,05,06,10,57,10.90
2017,05,06,10,58,10.90
2017,05,06,10,59,10.90
2017,05,06,11,00,11.00
2017,05,06,11,01,11.00
2017,05,06,11,02,11.10
2017,05,06,11,03,11.10
2017,05,06,11,04,11.20
2017,05,06,11,05,11.20
2017,05,06,11,06,11.20
2017,05,06,11,07,11.20
2017,05,06,11,08,11.20
2017,05,06,11,09,11.30
2017,05,06,11,10,11.30
2017,05,06,11,11,11.40
2017,05,06,11,12,11.40
2017,05,06,11,13,11.40
2017,05,06,11,14,11.40
2017,05,06,11,15,11.30
2017,05,06,11,16,11.20
2017,05,06,11,17,11.10
2017,05,06,11,18,11.10
2017,05,06,11,19,11.00
2017,05,06,11,20,10.90
2017,05,06,11,21,10.90
2017,05,06,11,22,10.90
2017,05,06,11,23,10.80
2017,05,06,11,24,10.80
2017,05,06,11,25,10.70
2017,05,06,11,26,10.60
2017,05,06,11,27,10.50
2017,05,06,11,28,10.50
2017,05,06,11,29,10.50
2017,05,06,11,30,10.50
2017,05,06,11,31,10.50
2017,05,06,11,32,10.60
2017,05,06,11,33,10.60
2017,05,06,11,34,10.60
2017,05,06,11,35,10.70
2017,05,06,11,36,10.80
2017,05,06,11,37,10.80
2017,05,06,11,38,10.80
2017,05,06,11,39,10.70
2017,05,06,11,40,10.70
2017,05,06,11,41,10.60
2017,05,06,11,42,10.60
2017,05,06,11,43,10.60
2017,05,06,11,44,10.50
2017,05,06,11,45,10.50
2017,05,06,11,46,10.50
2017,05,06,11,47,10.50
2017,05,06,11,48,10.60
2017,05,06,11,49,10.60
2017,05,06,11,50,10.70
2017,05,06,11,51,10.70
2017,05,06,11,52,10.70
2017,05,06,11,53,10.80
2017,05,06,11,54,10.80
2017,05,06,11,55,10.80
2017,05,06,11,56,10.70
2017,05,06,11,57,10.70
2017,05,06,11,58,10.70
2017,05,06,11,59,10.70
2017,05,06,12,00,10.70
2017,05,06,12,01,10.70
2017,05,06,12,02,10.80
2017,05,06,12,03,10.80
2017,05,06,12,04,10.80
2017,05,06,12,05,10.80
2017,05,06,12,06,10.90
2017,05,06,12,07,10.90
2017,05,06,12,08,10.90
2017,05,06,12,09,10.90
2017,05,06,12,10,10.80
2017,05,06,12,11,10.90
2017,05,06,12,12,10.90
2017,05,06,12,13,11.00
2017,05,06,12,14,11.00
2017,05,06,12,15,11.00
2017,05,06,12,16,10.90
2017,05,06,12,17,10.90
2017,05,06,12,18,10.90
2017,05,06,12,19,10.90
2017,05,06,12,20,10.90
2017,05,06,12,21,11.00
2017,05,06,12,22,11.00
2017,05,06,12,23,11.00
2017,05,06,12,24,10.90
2017,05,06,12,25,10.90
2017,05,06,12,26,10.90
2017,05,06,12,27,11.00
2017,05,06,12,28,11.10
2017,05,06,12,29,11.00
2017,05,06,12,30,11.00
2017,05,06,12,31,11.00
2017,05,06,12,32,11.00
2017,05,06,12,33,11.00
2017,05,06,12,34,11.00
2017,05,06,12,35,11.10
2017,05,06,12,36,11.20
2017,05,06,12,37,11.20
2017,05,06,12,38,11.20
2017,05,06,12,39,11.30
2017,05,06,12,40,11.40
2017,05,06,12,41,11.50
2017,05,06,12,42,11.60
2017,05,06,12,43,11.80
2017,05,06,12,44,11.90
2017,05,06,12,45,11.90
2017,05,06,12,46,11.90
2017,05,06,12,47,11.90
2017,05,06,12,48,11.90
2017,05,06,12,49,11.90
2017,05,06,12,50,11.90
2017,05,06,12,51,11.90
2017,05,06,12,52,11.90
2017,05,06,12,53,11.90
2017,05,06,12,54,11.90
2017,05,06,12,55,11.90
2017,05,06,12,56,12.00
2017,05,06,12,57,12.10
2017,05,06,12,58,12.20
2017,05,06,12,59,12.30
2017,05,06,13,00,12.30
2017,05,06,13,01,12.30
2017,05,06,13,02,12.30
2017,05,06,13,03,12.40
2017,05,06,13,04,12.50
2017,05,06,13,05,12.50
2017,05,06,13,06,12.50
2017,05,06,13,07,12.40
2017,05,06,13,08,12.40
2017,05,06,13,09,12.50
2017,05,06,13,10,12.50
2017,05,06,13,11,12.60
2017,05,06,13,12,12.60
2017,05,06,13,13,12.50
2017,05,06,13,14,12.50
2017,05,06,13,15,12.40
2017,05,06,13,16,12.40
2017,05,06,13,17,12.30
2017,05,06,13,18,12.30
2017,05,06,13,19,12.30
2017,05,06,13,20,12.20
2017,05,06,13,21,12.20
2017,05,06,13,22,12.20
2017,05,06,13,23,12.10
2017,05,06,13,24,12.00
2017,05,06,13,25,11.90
2017,05,06,13,26,11.80
2017,05,06,13,27,11.70
2017,05,06,13,28,11.60
2017,05,06,13,29,11.60
2017,05,06,13,30,11.50
2017,05,06,13,31,11.40
2017,05,06,13,32,11.40
2017,05,06,13,33,11.40
2017,05,06,13,34,11.40
2017,05,06,13,35,11.40
2017,05,06,13,36,11.50
2017,05,06,13,37,11.50
2017,05,06,13,38,11.50
2017,05,06,13,39,11.60
2017,05,06,13,40,11.60
2017,05,06,13,41,11.70
2017,05,06,13,42,11.70
2017,05,06,13,43,11.70
2017,05,06,13,44,11.70
2017,05,06,13,45,11.80
2017,05,06,13,46,12.00
2017,05,06,13,47,12.10
2017,05,06,13,48,12.20
2017,05,06,13,49,12.20
2017,05,06,13,50,12.20
2017,05,06,13,51,12.10
2017,05,06,13,52,12.10
2017,05,06,13,53,12.10
2017,05,06,13,54,12.10
2017,05,06,13,55,12.10
2017,05,06,13,56,12.20
2017,05,06,13,57,12.20
2017,05,06,13,58,12.20
2017,05,06,13,59,12.20
2017,05,06,14,00,12.10
2017,05,06,14,01,12.10
2017,05,06,14,02,12.10
2017,05,06,14,03,12.00
2017,05,06,14,04,12.00
2017,05,06,14,05,12.10
2017,05,06,14,06,12.10
2017,05,06,14,07,12.10
2017,05,06,14,08,12.10
2017,05,06,14,09,12.20
2017,05,06,14,10,12.30
2017,05,06,14,11,12.30
2017,05,06,14,12,12.40
2017,05,06,14,13,12.40
2017,05,06,14,14,12.40
2017,05,06,14,15,12.50
2017,05,06,14,16,12.40
2017,05,06,14,17,12.40
2017,05,06,14,18,12.30
2017,05,06,14,19,12.30
2017,05,06,14,20,12.30
2017,05,06,14,21,12.40
2017,05,06,14,22,12.40
2017,05,06,14,23,12.40
2017,05,06,14,24,12.40
2017,05,06,14,25,12.40
2017,05,06,14,26,12.40
2017,05,06,14,27,12.30
2017,05,06,14,28,12.30
2017,05,06,14,29,12.20
2017,05,06,14,30,12.10
2017,05,06,14,31,12.00
2017,05,06,14,32,11.90
2017,05,06,14,33,11.90
2017,05,06,14,34,11.90
2017,05,06,14,35,11.90
2017,05,06,14,36,11.90
2017,05,06,14,37,12.00
2017,05,06,14,38,12.10
2017,05,06,14,39,12.10
2017,05,06,14,40,12.10
2017,05,06,14,41,12.10
2017,05,06,14,42,12.10
2017,05,06,14,43,12.20
2017,05,06,14,44,12.30
2017,05,06,14,45,12.40
2017,05,06,14,46,12.50
2017,05,06,14,47,12.60
2017,05,06,14,48,12.60
2017,05,06,14,49,12.70
2017,05,06,14,50,12.70
2017,05,06,14,51,12.60
2017,05,06,14,52,12.60
2017,05,06,14,53,12.60
2017,05,06,14,54,12.50
2017,05,06,14,55,12.50
2017,05,06,14,56,12.50
2017,05,06,14,57,12.60
2017,05,06,14,58,12.60
2017,05,06,14,59,12.70
2017,05,06,15,00,12.70
2017,05,06,15,01,12.80
2017,05,06,15,02,12.80
2017,05,06,15,03,12.70
2017,05,06,15,04,12.70
2017,05,06,15,05,12.70
2017,05,06,15,06,12.70
2017,05,06,15,07,12.70
2017,05,06,15,08,12.70
2017,05,06,15,09,12.70
2017,05,06,15,10,12.60
2017,05,06,15,11,12.60
2017,05,06,15,12,12.60
2017,05,06,15,13,12.60
2017,05,06,15,14,12.60
2017,05,06,15,15,12.60
2017,05,06,15,16,12.60
2017,05,06,15,17,12.60
2017,05,06,15,18,12.60
2017,05,06,15,19,12.60
2017,05,06,15,20,12.60
2017,05,06,15,21,12.60
2017,05,06,15,22,12.60
2017,05,06,15,23,12.50
2017,05,06,15,24,12.40
2017,05,06,15,25,12.40
2017,05,06,15,26,12.40
2017,05,06,15,27,12.40
2017,05,06,15,28,12.40
2017,05,06,15,29,12.30
2017,05,06,15,30,12.30
2017,05,06,15,31,12.40
2017,05,06,15,32,12.40
2017,05,06,15,33,12.50
2017,05,06,15,34,12.50
2017,05,06,15,35,12.40
2017,05,06,15,36,12.30
2017,05,06,15,37,12.20
2017,05,06,15,38,12.20
2017,05,06,15,39,12.20
2017,05,06,15,40,12.20
2017,05,06,15,41,12.20
2017,05,06,15,42,12.20
2017,05,06,15,43,12.20
2017,05,06,15,44,12.20
2017,05,06,15,45,12.20
2017,05,06,15,46,12.20
2017,05,06,15,47,12.10
2017,05,06,15,48,12.10
2017,05,06,15,49,12.10
2017,05,06,15,50,12.10
2017,05,06,15,51,12.10
2017,05,06,15,52,12.10
2017,05,06,15,53,12.10
2017,05,06,15,54,12.10
2017,05,06,15,55,12.10
2017,05,06,15,56,12.10
2017,05,06,15,57,12.20
2017,05,06,15,58,12.20
2017,05,06,15,59,12.20
2017,05,06,16,00,12.20
2017,05,06,16,01,12.20
2017,05,06,16,02,12.20
2017,05,06,16,03,12.30
2017,05,06,16,04,12.30
2017,05,06,16,05,12.30
2017,05,06,16,06,12.30
2017,05,06,16,07,12.30
2017,05,06,16,08,12.40
2017,05,06,16,09,12.40
2017,05,06,16,10,12.40
2017,05,06,16,11,12.50
2017,05,06,16,12,12.50
2017,05,06,16,13,12.60
2017,05,06,16,14,12.70
2017,05,06,16,15,12.80
2017,05,06,16,16,12.80
2017,05,06,16,17,12.90
2017,05,06,16,18,12.90
2017,05,06,16,19,12.90
2017,05,06,16,20,12.80
2017,05,06,16,21,12.80
2017,05,06,16,22,12.80
2017,05,06,16,23,12.80
2017,05,06,16,24,12.80
2017,05,06,16,25,12.80
2017,05,06,16,26,12.80
2017,05,06,16,27,12.80
2017,05,06,16,28,12.80
2017,05,06,16,29,12.90
2017,05,06,16,30,12.90
2017,05,06,16,31,13.00
2017,05,06,16,32,13.10
2017,05,06,16,33,13.10
2017,05,06,16,34,13.20
2017,05,06,16,35,13.20
2017,05,06,16,36,13.20
2017,05,06,16,37,13.20
2017,05,06,16,38,13.30
2017,05,06,16,39,13.30
2017,05,06,16,40,13.40
2017,05,06,16,41,13.40
2017,05,06,16,42,13.40
2017,05,06,16,43,13.30
2017,05,06,16,44,13.30
2017,05,06,16,45,13.30
2017,05,06,16,46,13.30
2017,05,06,16,47,13.20
2017,05,06,16,48,13.20
2017,05,06,16,49,13.10
2017,05,06,16,50,13.10
2017,05,06,16,51,13.00
2017,05,06,16,52,13.10
2017,05,06,16,53,13.10
2017,05,06,16,54,13.10
2017,05,06,16,55,13.10
2017,05,06,16,56,13.10
2017,05,06,16,57,13.10
2017,05,06,16,58,13.10
2017,05,06,16,59,13.10
2017,05,06,17,00,13.00
2017,05,06,17,01,13.00
2017,05,06,17,02,13.00
2017,05,06,17,03,12.90
2017,05,06,17,04,12.90
2017,05,06,17,05,12.90
2017,05,06,17,06,12.80
2017,05,06,17,07,12.70
2017,05,06,17,08,12.50
2017,05,06,17,09,12.40
2017,05,06,17,10,12.30
2017,05,06,17,11,12.20
2017,05,06,17,12,12.10
2017,05,06,17,13,12.00
2017,05,06,17,14,11.90
2017,05,06,17,15,11.80
2017,05,06,17,16,11.60
2017,05,06,17,17,11.50
2017,05,06,17,18,11.40
2017,05,06,17,19,11.30
2017,05,06,17,20,11.20
2017,05,06,17,21,11.10
2017,05,06,17,22,11.00
2017,05,06,17,23,10.90
2017,05,06,17,24,10.80
2017,05,06,17,25,10.80
2017,05,06,17,26,10.70
2017,05,06,17,27,10.60
2017,05,06,17,28,10.60
2017,05,06,17,29,10.60
2017,05,06,17,30,10.50
2017,05,06,17,31,10.60
2017,05,06,17,32,10.50
2017,05,06,17,33,10.50
2017,05,06,17,34,10.40
2017,05,06,17,35,10.40
2017,05,06,17,36,10.40
2017,05,06,17,37,10.40
2017,05,06,17,38,10.40
2017,05,06,17,39,10.40
2017,05,06,17,40,10.40
2017,05,06,17,41,10.50
2017,05,06,17,42,10.50
2017,05,06,17,43,10.60
2017,05,06,17,44,10.60
2017,05,06,17,45,10.60